Location: Pensacola
(30.4142°N, 87.2155°W)
Time: 11:55:49
(UTC-05:00)

ISS - Visible Passes

Search period start: 24 June 2018 00:00
Search period end: 04 July 2018 00:00
Orbit: 402 x 407 km, 51.6° (Epoch: 25 June)

Date Brightness Start Highest point End Pass type
(mag) Time Alt. Az. Time Alt. Az. Time Alt. Az.
27 Jun -1.7 05:16:41 10° S 05:19:14 21° SE 05:21:49 10° ENE visible
29 Jun -3.6 05:08:06 10° SW 05:11:19 69° SE 05:14:35 10° NE visible
30 Jun -2.3 04:18:16 23° SSE 04:19:16 28° SE 04:22:09 10° ENE visible
01 Jul -0.9 03:28:20 12° ESE 03:28:20 12° ESE 03:28:54 10° E visible
01 Jul -2.8 05:01:00 14° WSW 05:03:29 36° NW 05:06:34 10° NNE visible
02 Jul -4.0 04:10:59 70° WSW 04:11:18 85° NW 04:14:35 10° NE visible
03 Jul -1.4 03:20:53 21° ENE 03:20:53 21° ENE 03:22:17 10° ENE visible
03 Jul -1.5 04:53:46 10° WNW 04:55:48 15° NW 04:57:50 10° N visible
